Location: LDNL
(36.4545°S, 141.6685°E)
Time: 04:07:20
(UTC+10:00)

BEESAT 2 - Visible Passes

Search period start: 18 May 2022 00:00
Search period end: 28 May 2022 00:00
Orbit: 489 x 509 km, 64.9° (Epoch: 17 May)

Date Brightness Start Highest point End Pass type
(mag) Time Alt. Az. Time Alt. Az. Time Alt. Az.
22 May ? 18:30:54 10° SSE 18:31:11 11° SSE 18:31:11 11° SSE visible
23 May ? 18:10:16 10° SE 18:10:59 10° SE 18:11:32 10° SE visible
23 May ? 19:44:53 10° SW 19:46:14 21° SW 19:46:14 21° SW visible
24 May ? 19:23:38 10° SSW 19:27:01 66° WSW 19:27:01 66° WSW visible
25 May ? 19:02:22 10° SSW 19:06:11 88° WNW 19:08:36 21° NNE visible
26 May ? 18:41:04 10° SSW 18:44:54 81° ESE 18:48:41 10° NNE visible
27 May ? 18:19:46 10° SSW 18:23:35 71° ESE 18:27:21 10° NE visible
